Showing default

GALILEO 17 (26D), 41861

Orbit data source: Space-Track

GALILEO 17 (26D), 41861 is a payload satellite owned by GNSS Agency (ESA) that was launched on Thu, 17 Nov 2016 UTC via an ARIANE 5ES launch vehicle from the French Guiana (FRGUI). Payloads include a variety of satellites, spacecraft, and rockets equipped with specific instruments for various scientific and technological missions. These include communications satellites like Starlink; space stations such as the ISS; scientific satellites like the Hubble; Earth observation satellites from companies like Planet Labs, Umbra, and HawkEye 360; GPS; miniature CubeSats for education and research; and military/defense satellites.

Loading next visibility...
GALILEO 17 (26D) details
Identifier
41861, 2016-069C
Orbit
Active
Last TLE update2 days ago
Origin
Flag of ESAGNSS Agency (ESA)
ManufacturerOHB
MissionOperational Civil Navigation
Bus & MotorGALILEOSAT, AOCS
Mass738 kg wet, 700 kg dry
Launch date (UTC)
2016-11-17 (8 years ago)
Launch vehicle
ARIANE 5ES
Launch site
French Guiana (FRGUI)
Object type
Payload
Rocket body
Debris
Shape & HBRBox + 2 Pan, 14.71 m
Radar Cross Section9.223 m², Large (>1 m²)

Expand to show TLE details & history

TLE from 2 days ago
0 GALILEO 17 (26D)
1 41861U 16069C   24345.23313481  .00000041  00000-0  00000-0 0  9990
2 41861  55.1766 116.4385 0002365 266.0321  93.9101  1.70474820 50074
Epoch: 2024-12-10T05:35Z
Definitive object data (Epoch: 2024-12-10T05:35:42.847Z)
Latitude0.00005°
Longitude-46.95155°
Altitude23,222.834 km
Speed3.67 km/s
True Right ascension07h 45m 41s
True Declination0° 00' 00"
Sunlit
Object was in daylight at TLE epoch
Visualization TLE readout
Latitude-40.90161°
Longitude-84.00124°
Altitude23,230.808 km
Speed3.67 km/s
Apparent Right ascension05h 46m 50s
Apparent Declination-41° 49' 58"
Sunlit
Object is in daylight
Visualization observer readout
Local Sidereal Time20:09:38
Azimuth105.831° ESE
Elevation-63.132°
Doppler factor1
Orbital elements
Apogee altitude23,229.091 km
Perigee altitude23,215.09 km
Semi-major axis29,600.227 km
Eccentricity0.0002365
Inclination55.1766°
RAAN116.4385°
Arg. of periapsis266.0321°
True anomaly93.93714°
Mean anomaly93.9101°
Eccentric anomaly93.92362°
Mean motion0.42619 °/min
BSTARUnknown
Orbital period844.7 mins
Loading maneuver chart data...
Loading historical data...
Loading historical data...
Loading historical data...
Loading historical data...
Loading historical data...
Loading historical data...
Loading historical data...

GALILEO 17 (26D) Visibility forecast

Observer location: undefined°, undefined

Span
Click to sort rows by Start time (UTC) header in descending order
Start Az.
Max El. time (UTC)
Max El. Az.
Max El.
End time (UTC)
End Az.
442 mins2024-12-12 14:23:43.816Z264.443° W2024-12-12 18:56:43.816Z183.643° SSW45°2024-12-12 21:45:43.816Z174.026° S
|